This is the latest recevied weather packets stored in our database for station/object OE9GTV. If no packets are shown the sender has not sent any weather packets the latest 10 day(s).
| Time | Temp. | Humidity | Pressure | Rain* | Wind** | Luminosity | Snow |
|---|---|---|---|---|---|---|---|
| 1777731074 | 25° C | 36% | 1015.3 hPa | 0 mm | - | 0 W/m² | - |
| 1777730475 | 25° C | 34% | 1015.5 hPa | 0 mm | - | 0 W/m² | - |
| 1777729874 | 24.44° C | 35% | 1015.6 hPa | 0 mm | - | 0 W/m² | - |
| 1777729274 | 24.44° C | 36% | 1015.8 hPa | 0 mm | - | 0 W/m² | - |
| 1777728074 | 24.44° C | 34% | 1016 hPa | 0 mm | - | 0 W/m² | - |
| 1777727473 | 24.44° C | 34% | 1016.2 hPa | 0 mm | - | 0 W/m² | - |
| 1777726874 | 24.44° C | 36% | 1016.3 hPa | 0 mm | - | 0 W/m² | - |
| 1777726273 | 24.44° C | 36% | 1016.4 hPa | 0 mm | - | 0 W/m² | - |
| 1777725673 | 24.44° C | 38% | 1016.5 hPa | 0 mm | - | 0 W/m² | - |
| 1777725073 | 24.44° C | 39% | 1016.7 hPa | 0 mm | - | 0 W/m² | - |
| 1777724474 | 24.44° C | 42% | 1016.8 hPa | 0 mm | - | 0 W/m² | - |
| 1777723873 | 23.89° C | 43% | 1017 hPa | 0 mm | - | 0 W/m² | - |
| 1777723273 | 23.89° C | 43% | 1017.3 hPa | 0 mm | - | 0 W/m² | - |
| 1777722673 | 23.33° C | 44% | 1017.4 hPa | 0 mm | - | 0 W/m² | - |
| 1777722073 | 23.33° C | 46% | 1017.6 hPa | 0 mm | - | 0 W/m² | - |
| 1777721473 | 22.78° C | 44% | 1017.7 hPa | 0 mm | - | 0 W/m² | - |
| 1777720873 | 22.78° C | 42% | 1017.9 hPa | 0 mm | - | 0 W/m² | - |
| 1777720273 | 22.22° C | 43% | 1018 hPa | 0 mm | - | 0 W/m² | - |
| 1777719673 | 22.22° C | 44% | 1018.2 hPa | 0 mm | - | 0 W/m² | - |
| 1777719073 | 22.22° C | 43% | 1018.3 hPa | 0 mm | - | 0 W/m² | - |
| 1777718473 | 22.22° C | 44% | 1018.4 hPa | 0 mm | - | 0 W/m² | - |
| 1777717873 | 21.67° C | 45% | 1018.6 hPa | 0 mm | - | 0 W/m² | - |
| 1777717273 | 21.67° C | 46% | 1018.7 hPa | 0 mm | - | 0 W/m² | - |
| 1777716673 | 21.67° C | 50% | 1018.9 hPa | 0 mm | - | 0 W/m² | - |
| 1777716073 | 21.67° C | 49% | 1019 hPa | 0 mm | - | 0 W/m² | - |
* Rain latest hour (hover to see other rain measurements)
** Current wind speed in m/s (hover to see current wind gust speed)